This is the latest recevied weather packets stored in our database for station/object N2PUI. If no packets are shown the sender has not sent any weather packets the latest 10 day(s).
| Time | Temp. | Humidity | Pressure | Rain* | Wind** | Luminosity | Snow |
|---|---|---|---|---|---|---|---|
| 1777589285 | 8.89° C | 66% | 1011.3 hPa | 0 mm | - | 64 W/m² | - |
| 1777588982 | 8.89° C | 65% | 1011.1 hPa | 0 mm | - | 78 W/m² | - |
| 1777588672 | 8.89° C | 66% | 1011.2 hPa | 0 mm | - | 47 W/m² | - |
| 1777588368 | 8.89° C | 66% | 1011 hPa | 0 mm | - | 58 W/m² | - |
| 1777588064 | 8.89° C | 65% | 1011.2 hPa | 0 mm | - | 50 W/m² | - |
| 1777587755 | 8.89° C | 65% | 1010.9 hPa | 0 mm | - | 90 W/m² | - |
| 1777587453 | 8.89° C | 65% | 1010.8 hPa | 0 mm | - | 88 W/m² | - |
| 1777587151 | 8.89° C | 65% | 1010.7 hPa | 0 mm | - | 85 W/m² | - |
| 1777586846 | 8.89° C | 65% | 1010.9 hPa | 0 mm | - | 73 W/m² | - |
| 1777586542 | 9.44° C | 64% | 1010.7 hPa | 0 mm | - | 43 W/m² | - |
| 1777586238 | 8.89° C | 64% | 1010.7 hPa | 0 mm | - | 43 W/m² | - |
| 1777585935 | 9.44° C | 64% | 1010.4 hPa | 0 mm | - | 51 W/m² | - |
| 1777585630 | 9.44° C | 64% | 1010.6 hPa | 0 mm | - | 57 W/m² | - |
| 1777585325 | 9.44° C | 64% | 1010.3 hPa | 0 mm | - | 81 W/m² | - |
| 1777585021 | 10° C | 64% | 1010.2 hPa | 0 mm | - | 113 W/m² | - |
| 1777584717 | 10° C | 64% | 1010.3 hPa | 0 mm | - | 98 W/m² | - |
| 1777584415 | 10° C | 65% | 1010.2 hPa | 0 mm | - | 124 W/m² | - |
| 1777584111 | 10° C | 65% | 1010 hPa | 0 mm | - | 130 W/m² | - |
| 1777583810 | 10° C | 65% | 1010 hPa | 0 mm | - | 127 W/m² | - |
| 1777583505 | 10° C | 64% | 1009.8 hPa | 0 mm | - | 74 W/m² | - |
| 1777583200 | 10° C | 63% | 1009.8 hPa | 0 mm | - | 73 W/m² | - |
| 1777582895 | 10° C | 64% | 1009.7 hPa | 0 mm | - | 71 W/m² | - |
| 1777582593 | 10.56° C | 63% | 1009.8 hPa | 0 mm | - | 131 W/m² | - |
| 1777582288 | 10.56° C | 63% | 1009.4 hPa | 0 mm | - | 209 W/m² | - |
| 1777581986 | 10.56° C | 63% | 1009.7 hPa | 0 mm | - | 188 W/m² | - |
* Rain latest hour (hover to see other rain measurements)
** Current wind speed in m/s (hover to see current wind gust speed)